Погода в Южном

Россия / Челябинская область     53°31′38″N   60°04′37″E
темп.,
°C
ветер,
м/с
пор.,
м/с
влажн.,
%
обл.,
%
осадки,
мм/ч
давл.,
гПа
погр.,
м
24 января, пн
пн2423:00−23зсз119385 0.0 10419
02:00−24зсз11935 0.0 10419
05:00−23з229680 0.0 10419
08:00−24юз119997 0.0 10419
11:00−18юз2293100 0.0 104031
14:00−12юз2388100 0.0 103872
17:00−16зюз2293100 0.0 103812
20:00−18юз3393100 0.0 103838
25 января, вт
вт2523:00−16зюз3488100 0.0 103755
02:00−15зюз3387100 0.0 103641
05:00−14з2389100 0.0 103543
08:00−16з329162 0.0 103427
11:00−15з239111 0.0 103443
14:00−10зюз23865 0.0 103265
17:00−15зюз22925 0.0 103215
20:00−19зюз32925 0.0 103219
26 января, ср
ср2623:00−19зюз33905 0.0 103223
02:00−20зюз33975 0.0 103221
05:00−21зюз2210071 0.0 103220
08:00−21зюз339880 0.0 103130
11:00−16зюз359370 0.0 103078
14:00−11юз379179 0.0 1028149
17:00−15ю229496 0.0 102815
20:00−18ююз3582100 0.0 102855
27 января, чт
чт2723:00−15ююз3884100 0.0 1027138
02:00−14ююз3109673 0.1 1026188
05:00−11юз4139566 0.2 1024269
08:00−11юз41196100 0.0 1024198
11:00−9ююз3997100 0.0 1025229
14:00−5ююз3896100 0.0 1023355
17:00−6ююз2497100 0.1 102467
20:00−7ю3597100 0.0 102395
28 января, пт
пт2823:00−9ююв3594100 0.0 102365
02:00−13ююв2296100 0.0 102320
05:00−14юв2297100 0.0 102313
08:00−14вюв2297100 0.0 102134
11:00−11вюв2394100 0.0 102194
14:00−10в2390100 0.0 1019142
17:00−11всв2294100 0.0 101825
20:00−12св3494100 0.0 101781